ラッセル第4彗星

94P/Russell 4 (2023)

English version
Home page
Updated on May 13, 2024

---------------------------------------------------------------------

・ プロフィール

・ 写真集

・ 軌道要素

Epoch 2024 Mar. 31.0 TT = JDT 2460400.5
T 2023 May 21.04616 TT                                  Rudenko
q   2.2268321            (2000.0)            P               Q
n   0.14984215     Peri.   92.40325     -0.95209819     -0.28834097
a   3.5105895      Node    70.85190     +0.21974556     -0.87670689
e   0.3656814      Incl.    6.18791     +0.21265214     -0.38502535
P   6.58
>From 2216 observations 1984 Mar. 4-2024 Feb. 8, mean residual 0".6.
     Nongravitational parameters A1 = +0.02, A2 = +0.0014.

・ 星図

・ 光度変化

        H = 14.5  G = 0.15             [    ,-210]  (              〜2022年10月23日)
        m1 = 3.0 + 5 logΔ + 35 log r  [-210, 155]  (2022年10月23日〜2023年10月23日)
        H = 14.5  G = 0.15             [ 155,    ]  (2023年10月23日〜              )

---------------------------------------------------------------------

軌道要素はM.P.E.C. 2024-D33に掲載されたものです。
星図はステラナビゲータ Ver.10 (アストロアーツ) で作成したものです。
光度グラフはComet for Windowsで作成したものです。

---------------------------------------------------------------------

Copyright(C) Seiichi Yoshida (comet@aerith.net). All rights reserved.